Regional Weather Roundup
Issued by NWS

Home | Current Version | Previous Version | Graphics & Text | Print | Product List | Glossary On
Versions: 1 2 3 4 5 6 7 8 9 10 11 12 13 14 15 16 17 18 19 20 21 22 23 24 25 26 27 28 29 30 31 32 33 34 35 36 37 38 39 40 41 42 43 44 45 46 47 48 49 50
000
ASUS43 KLSX 231457
RWRMO

WEATHER SUMMARY FOR MISSOURI
NATIONAL WEATHER SERVICE SPRINGFIELD MO
1000 AM CDT FRI JUN 23 2017

NOTE: "FAIR" INDICATES FEW OR NO CLOUDS BELOW 12,000 FEET WITH NO
       SIGNIFICANT WEATHER AND/OR OBSTRUCTIONS TO VISIBILITY.
       CURRENT SKY AND/OR WEATHER CONDITIONS ARE NOT AVAILABLE FOR
       CHILLICOTHE AND FARMINGTON.

MOZ001>031-035>038-043-044-053-054-231600-
...NORTHERN AND WESTERN MISSOURI...

CITY           SKY/WX    TMP DP  RH WIND       PRES   REMARKS
KANSAS CTY INT PTSUNNY   77  61  57 N15       29.89R
LEE`S SUMMIT   PTSUNNY   76  67  73 N20       29.86R
ST JOSEPH      SUNNY     76  63  64 NW15      29.91R
CHILLICOTHE      N/A     77  66  68 N6G16     29.85R

$$
MOZ066>068-077>081-088>096-101>105-231600-
...SOUTHWEST MISSOURI...

CITY           SKY/WX    TMP DP  RH WIND       PRES   REMARKS
SPRINGFIELD    CLOUDY    80  75  84 NW6       29.79R
JOPLIN         CLOUDY    80  76  87 W8        29.80R
BRANSON        PTSUNNY   77  73  88 NW6       29.81R

$$
MOZ032>034-039>042-045>050-055>058-069>072-231600-
...CENTRAL MISSOURI...

CITY           SKY/WX    TMP DP  RH WIND       PRES   REMARKS
COLUMBIA       NOT AVBL
JEFFERSON CITY CLOUDY    75  67  76 NW13G21   29.77R
ROLLA          MOSUNNY   77  68  73 N9        29.75S
SEDALIA        PTSUNNY   75  72  90 N10       29.82S
WARRENSBURG    CLOUDY    72  66  83 N13G18    29.83R

$$
MOZ051-052-059>065-231600-
...EAST CENTRAL MISSOURI...

CITY           SKY/WX    TMP DP  RH WIND       PRES   REMARKS
ST LOUIS INTL  CLOUDY    82  72  71 W16       29.70R

$$
MOZ072>076-082>087-097>100-106>115-231600-
...SOUTH CENTRAL AND SOUTHEAST MISSOURI...

CITY           SKY/WX    TMP DP  RH WIND       PRES   REMARKS
CAPE GIRARDEAU LGT RAIN  75  72  90 CALM      29.71S
POPLAR BLUFF   CLOUDY    77  75  93 NE6       29.69S
WEST PLAINS    CLOUDY    82  72  71 N10       29.76F

$$



USA.gov is the U.S. government's official web portal to all federal, state and local government web resources and services.